Temperature
28 25 25 25 26 27 27 27 27 27 28 27 26 25 25 25 25 25 24 24 24 24 24 23 23 22 22 21 21 21 20 20 20 19 19 19 19 19 19 18 18 18 18 18
25 25 26 27 28 28 28 27 27 27 28 27 26 25 25 25 25 25 24 24 24 24 23 23 23 22 22 22 21 21 21 20 20 20 19 19 19 19 19 19 18 18 18 18
25 26 28 29 28 28 27 27 27 27 27 27 26 25 25 25 25 25 25 25 24 24 23 23 23 23 22 22 22 21 21 21 20 20 19 19 19 19 19 18 18 18 18 18
26 27 28 28 28 28 27 28 28 28 26 24 25 23 24 24 24 25 25 25 24 24 24 24 23 23 23 22 22 22 21 21 20 20 20 19 19 19 19 19 19 18 18 18
26 27 28 28 28 29 28 28 28 27 25 24 24 23 23 23 23 24 24 25 25 24 24 24 24 23 23 23 22 22 21 21 20 20 20 19 19 19 19 19 18 18 18 18
26 28 28 28 29 29 29 27 26 24 22 23 24 24 22 22 24 24 24 25 24 24 24 24 24 23 23 23 22 22 21 21 21 20 20 20 19 19 19 19 18 18 18 18
26 27 28 29 28 27 27 24 23 23 22 22 23 24 22 24 25 25 25 25 25 25 24 24 23 23 23 23 22 22 21 21 21 20 20 20 20 19 19 19 19 19 18 18
24 24 27 28 27 26 26 24 23 23 22 22 23 23 23 25 25 26 26 25 25 25 24 24 23 23 23 23 22 22 22 21 21 20 20 20 20 19 19 19 19 19 19 18
23 24 27 28 29 28 26 24 23 22 22 22 22 23 24 24 24 24 24 24 24 24 24 24 23 23 23 23 22 22 22 21 21 21 20 20 20 20 19 19 19 19 18 18
23 24 25 27 28 27 26 25 21 21 22 22 23 23 22 23 23 23 23 23 23 24 24 23 23 23 23 23 22 22 22 21 21 21 20 20 20 20 19 19 19 19 19 18
23 23 24 25 26 26 26 25 22 20 20 21 22 22 24 23 22 22 22 23 23 24 24 23 23 23 22 22 22 22 21 21 21 21 20 20 20 19 19 19 19 19 19 18
23 20 21 23 25 26 26 25 22 22 21 20 20 21 24 22 22 22 22 22 23 23 23 23 22 22 22 22 22 21 21 21 21 20 20 20 20 19 19 19 19 19 18 18
23 20 21 22 22 24 25 24 22 21 20 19 20 21 22 21 21 21 21 22 21 21 22 22 22 22 21 21 21 21 21 21 20 20 20 19 19 19 19 19 18 18 18 18
22 19 20 21 22 23 24 24 24 21 20 20 21 21 21 20 20 20 20 20 20 20 21 21 21 21 21 21 21 21 20 20 20 20 20 19 19 19 19 19 18 18 18 18
21 20 21 21 23 24 24 24 24 22 21 21 21 21 20 20 19 19 19 19 19 20 20 20 20 20 20 20 20 20 20 20 20 20 19 19 19 19 19 18 18 18 18 18
19 20 21 22 23 24 24 24 24 24 23 22 21 20 20 20 20 19 19 19 19 19 19 19 19 19 20 20 20 20 20 20 20 19 19 19 19 18 18 18 18 18 18 17
18 19 19 20 22 22 22 22 23 23 23 22 21 20 19 19 19 18 19 19 18 18 19 19 19 19 19 20 19 19 19 19 19 19 19 18 18 18 18 18 18 17 17 17
18 17 16 18 20 20 21 21 23 22 21 21 20 20 19 19 19 19 19 19 18 18 18 19 19 19 19 19 19 19 19 19 19 18 18 18 18 17 17 17 17 17 17 16
17 17 17 17 18 19 21 21 21 21 20 20 20 19 19 19 18 18 18 19 19 19 18 18 18 18 18 18 18 18 18 18 18 17 17 17 17 17 17 16 16 16 16 16
17 16 17 17 18 19 20 21 22 21 19 19 19 19 18 18 17 17 18 18 18 18 18 18 18 18 18 18 17 17 17 17 17 17 17 17 17 16 16 16 16 16 15 15
17 16 16 17 17 18 19 20 21 20 18 19 19 19 19 17 18 18 18 18 18 18 18 18 17 17 17 17 17 17 17 16 16 16 16 16 16 16 16 15 15 15 15 15
16 16 16 16 17 17 19 19 19 18 19 19 19 19 19 18 18 18 18 17 17 17 17 17 17 17 17 17 17 16 16 16 16 16 16 15 15 15 15 15 14 14 14 14
16 15 14 15 15 16 18 18 19 19 18 19 19 19 18 18 17 17 17 16 16 16 16 16 16 16 16 16 16 16 15 15 15 15 15 15 15 15 14 14 14 14 14 14
16 15 14 15 16 16 17 18 18 18 18 18 18 18 18 17 17 16 16 16 16 15 16 15 15 15 15 15 15 15 15 15 14 14 14 14 14 14 14 14 14 14 13 13
15 15 14 14 15 16 17 18 18 18 18 18 18 18 17 17 16 16 15 15 15 15 15 15 15 15 15 14 14 14 14 14 14 14 14 14 13 13 13 13 13 13 13 13
14 15 14 14 15 15 16 17 18 17 17 17 17 16 16 16 16 15 15 15 15 15 15 14 14 14 14 14 14 14 14 14 14 13 13 13 13 13 13 13 13 13 13 13
Wind_Speed
2 2 5 9 9 8 7 4 4 5 4 5 8 9 13 14 13 13 14 14 14 15 13 14 15 15 13 11 11 10 10 8 6 4 4 4 3 3 3 4 6 7 7 7
3 5 11 9 7 5 4 4 5 3 3 4 6 9 11 14 15 16 17 17 16 13 12 14 14 15 14 14 12 11 10 10 8 6 5 4 4 3 3 3 4 7 7 7
9 9 8 6 7 6 6 6 6 4 0 2 4 2 5 8 8 10 13 15 16 18 17 16 16 15 15 14 14 13 11 10 9 7 4 3 3 2 2 2 3 5 7 7
7 9 7 7 7 6 7 7 5 3 2 2 4 3 6 7 7 11 13 12 14 16 16 16 16 16 16 16 14 12 12 10 9 8 7 6 5 5 5 4 3 4 5 6
7 6 7 8 10 6 7 6 4 4 4 1 1 3 6 3 8 12 13 14 14 15 17 17 17 17 16 15 14 12 11 10 9 9 9 8 6 5 3 3 4 3 3 4
8 7 6 8 8 5 4 2 4 5 4 2 6 5 6 7 13 13 13 15 15 15 15 15 14 13 13 14 13 12 12 10 10 10 9 8 8 6 5 4 4 3 3 3
7 8 6 4 4 5 1 4 3 4 3 6 5 4 8 10 11 12 14 14 14 14 14 14 14 14 14 15 15 13 13 11 10 10 9 8 8 8 8 6 6 5 3 3
4 8 7 4 7 7 5 9 8 6 6 6 3 5 7 6 6 8 9 9 10 12 14 16 16 16 15 16 15 14 13 12 11 10 9 8 8 6 5 6 5 5 5 5
6 8 8 6 5 7 4 4 9 8 4 2 4 5 6 2 4 5 6 7 8 11 12 13 14 14 14 14 14 14 13 11 11 10 9 8 7 7 6 6 5 4 3 4
7 5 7 6 2 1 6 6 5 5 5 3 4 4 4 3 3 3 5 7 7 7 8 8 10 12 12 12 12 11 12 11 10 9 9 8 7 7 6 5 5 4 4 3
6 5 6 4 3 5 1 2 4 4 6 6 4 6 5 7 7 7 6 6 7 7 8 7 8 9 10 10 10 10 10 9 9 9 8 7 7 7 6 6 5 5 4 4
4 5 4 8 7 5 5 6 6 5 4 5 5 6 4 4 5 6 6 6 5 6 7 7 8 8 8 10 10 10 10 9 9 9 7 7 7 7 7 6 6 5 5 5
3 5 0 8 8 5 1 1 3 5 4 4 4 5 2 5 6 5 7 7 6 5 5 6 7 7 9 9 9 9 9 9 8 8 8 6 7 7 7 7 6 5 5 5
4 4 7 9 8 4 4 5 2 4 3 4 6 5 2 3 6 5 6 7 7 6 6 5 5 5 6 7 8 8 7 7 7 6 7 7 7 7 7 6 6 6 6 5
5 3 4 6 5 3 3 5 3 3 7 7 7 8 9 7 8 7 7 8 9 7 6 5 4 4 5 6 6 6 6 6 7 6 6 6 6 6 6 5 5 5 5 6
3 2 0 2 1 2 5 6 4 2 4 5 6 4 5 5 6 7 7 8 8 7 6 5 4 4 5 6 6 6 6 6 6 7 6 5 5 5 5 5 4 4 4 4
0 3 2 3 3 4 5 6 3 1 2 7 6 6 7 7 8 9 8 7 7 6 6 5 4 5 5 5 6 5 5 6 6 6 5 4 4 4 4 4 4 4 5 4
4 3 3 2 2 3 6 4 1 3 0 2 5 8 11 9 7 5 6 7 6 5 3 4 4 4 4 4 4 4 4 5 6 5 4 4 4 4 4 3 4 5 4 4
6 6 3 3 3 4 4 3 1 2 1 1 8 10 10 9 8 4 2 5 6 6 4 4 5 5 5 5 4 5 5 4 5 4 3 3 4 4 4 4 4 4 4 4
3 5 5 4 4 5 5 4 1 4 1 0 9 12 10 9 5 3 3 5 6 6 5 5 5 6 5 4 4 6 5 4 3 2 2 2 3 4 4 5 5 4 4 5
3 3 3 4 4 4 5 5 2 4 6 4 7 10 8 5 6 6 5 5 6 5 4 5 6 5 4 4 5 5 4 3 2 2 1 1 2 2 2 3 3 3 3 3
3 2 2 3 3 5 4 2 2 5 4 5 6 8 8 7 7 7 7 6 6 5 5 5 5 4 2 3 4 4 2 2 1 1 1 0 1 1 1 1 2 2 3 3
1 4 4 4 5 4 1 3 2 4 6 4 5 7 10 9 8 8 6 6 5 4 4 4 5 4 2 2 3 3 1 1 2 2 1 0 1 1 1 2 2 2 3 3
2 1 3 1 1 0 2 4 4 5 5 6 8 9 10 10 9 7 6 5 4 4 4 3 4 4 2 1 2 1 1 2 2 1 1 1 1 1 1 1 1 2 2 2
3 1 2 1 1 3 3 3 5 5 6 8 9 9 9 10 9 7 6 5 4 3 3 3 4 4 2 1 1 0 1 2 2 1 1 1 1 1 0 1 2 2 3 4
2 4 5 5 6 4 4 3 6 8 7 8 10 8 6 8 8 6 5 4 3 4 3 4 3 3 2 1 1 0 0 1 2 2 1 1 1 1 1 0 2 3 2 3
Wind_Direction
301 101 233 238 220 214 214 222 235 243 199 155 179 182 187 191 184 181 185 187 187 188 183 174 171 169 167 166 164 167 167 170 161 157 154 152 167 177 172 180 181 176 179 180
347 255 233 229 240 239 220 226 240 269 202 162 177 194 198 195 195 189 190 189 189 186 180 179 176 173 172 172 170 169 171 173 171 174 172 166 159 169 179 185 181 182 181 183
219 243 244 239 254 253 251 216 216 214 267 75 121 248 218 213 208 200 196 192 188 186 187 183 180 180 175 176 176 176 175 174 176 170 154 139 113 104 133 176 189 192 187 187
240 248 251 254 251 226 252 239 201 176 126 255 152 208 252 212 213 208 200 190 188 191 189 184 181 181 181 182 179 175 175 176 177 169 163 161 167 179 192 187 185 188 187 185
248 248 239 249 247 233 236 241 196 166 156 215 268 158 266 197 208 215 202 193 191 192 187 185 184 183 182 180 179 178 174 178 177 174 174 174 181 187 177 162 167 180 185 182
245 258 229 231 251 236 235 30 34 58 81 225 232 183 240 212 208 207 198 192 190 192 186 185 182 177 178 179 177 177 176 182 180 178 178 180 181 178 166 168 176 184 185 189
289 285 270 242 271 293 72 95 32 354 349 249 240 192 235 229 215 200 195 191 189 188 186 182 175 176 179 179 178 179 178 183 183 180 181 183 180 175 178 180 184 182 184 195
235 278 269 240 208 222 222 151 166 197 219 261 284 220 250 247 214 190 181 178 180 185 185 186 183 179 179 180 178 177 179 182 182 181 184 182 177 177 183 187 184 186 193 202
192 250 273 258 225 180 203 197 178 159 192 217 265 274 315 7 115 140 146 148 169 183 185 185 180 179 177 177 178 176 176 177 181 183 179 178 179 179 182 184 181 186 198 204
175 238 277 282 315 258 173 167 98 125 167 227 267 263 235 237 180 154 139 151 160 164 168 172 176 180 177 175 172 171 173 176 175 178 183 187 186 186 183 176 182 187 197 203
166 186 282 317 234 236 258 121 123 136 160 166 216 260 233 196 171 155 146 152 156 161 162 163 168 166 166 163 165 167 170 171 174 176 178 183 183 182 179 181 188 188 193 194
174 149 244 263 261 231 200 190 155 160 222 173 175 255 288 163 146 133 125 119 130 157 158 159 155 153 159 163 163 166 171 173 177 177 176 181 182 178 181 192 193 186 189 194
143 125 262 324 327 352 19 214 161 148 142 163 175 251 333 85 93 107 121 117 112 124 132 138 144 155 165 166 165 166 173 175 172 170 173 176 181 184 187 194 193 188 191 194
127 127 174 210 233 250 288 297 248 136 160 194 204 198 236 134 121 121 124 120 111 111 111 110 133 156 166 167 166 161 164 171 169 169 172 177 185 187 187 189 188 191 192 192
104 157 201 224 235 240 276 290 282 202 186 180 198 184 200 187 160 151 141 130 120 115 113 125 142 146 145 148 155 159 160 167 167 168 178 188 189 185 181 183 188 191 192 199
69 151 203 283 293 339 317 307 284 216 174 156 147 184 201 164 141 138 136 128 125 123 126 142 150 142 140 145 152 156 162 168 165 172 183 186 178 175 180 184 185 187 194 198
108 120 112 258 286 352 305 285 253 231 195 157 176 197 155 143 154 158 152 136 133 133 142 152 148 149 148 150 152 158 169 164 163 176 177 177 178 180 189 188 184 196 203 200
174 151 154 193 65 221 247 276 183 149 194 158 148 154 155 155 144 131 134 133 136 133 134 134 124 119 118 119 122 125 123 141 155 167 172 178 182 190 193 196 203 207 207 206
175 160 151 149 177 247 276 286 239 145 359 101 134 139 135 116 87 69 108 127 131 134 140 130 118 108 101 104 112 109 104 108 125 143 156 169 170 181 186 197 216 218 212 215
95 124 138 147 158 215 244 277 265 96 71 323 131 138 141 124 128 198 163 116 106 98 107 113 111 101 97 95 102 108 110 107 117 135 158 160 170 183 193 203 219 220 211 217
35 48 132 164 191 243 263 293 55 142 205 207 144 140 139 142 166 167 132 103 102 99 100 100 102 99 105 108 101 109 113 128 169 153 144 152 172 186 191 206 214 209 206 205
156 146 178 149 174 234 290 11 146 193 173 148 137 137 131 122 117 117 116 111 109 102 99 102 102 100 105 110 108 112 142 185 164 139 129 100 251 228 186 194 228 213 192 194
154 177 171 176 207 246 256 133 134 126 123 125 120 126 128 119 116 116 115 115 112 110 105 102 111 100 79 98 124 132 181 162 136 117 93 26 294 262 209 197 206 220 207 200
317 80 110 84 257 34 66 88 86 100 118 123 120 125 126 124 127 127 130 132 131 125 120 114 113 107 84 68 110 143 176 153 141 145 163 215 232 313 321 263 218 215 218 213
258 72 92 127 216 50 40 98 111 104 107 103 110 117 128 129 132 134 133 137 139 132 131 127 129 127 122 75 72 93 175 134 139 161 192 219 210 205 251 312 270 242 226 209
236 184 178 212 216 175 202 173 126 117 111 115 112 101 108 123 126 124 129 132 131 133 130 124 123 124 126 101 63 348 69 145 157 175 214 236 242 229 150 158 326 326 271 245
Height
1476 1484 1490 1486 1484 1486 1488 1492 1495 1489 1481 1487 1492 1494 1494 1495 1497 1499 1502 1503 1505 1507 1510 1512 1515 1517 1520 1522 1524 1526 1527 1529 1530 1532 1533 1534 1535 1536 1538 1539 1540 1541 1542 1542
1483 1487 1478 1475 1476 1479 1485 1492 1492 1486 1480 1486 1492 1493 1490 1491 1491 1493 1495 1498 1501 1505 1508 1510 1512 1515 1517 1519 1521 1524 1525 1527 1529 1531 1532 1534 1535 1536 1537 1538 1539 1540 1541 1541
1485 1478 1470 1473 1477 1481 1484 1489 1488 1488 1483 1484 1493 1501 1495 1490 1490 1492 1493 1494 1497 1500 1503 1506 1509 1511 1514 1517 1519 1521 1523 1525 1527 1530 1532 1533 1535 1535 1536 1537 1538 1539 1540 1540
1476 1470 1470 1473 1476 1477 1487 1476 1477 1481 1492 1502 1497 1518 1500 1491 1490 1490 1491 1492 1494 1496 1499 1501 1505 1508 1511 1514 1517 1520 1522 1524 1526 1528 1529 1531 1532 1533 1534 1536 1537 1538 1538 1539
1475 1468 1470 1473 1471 1469 1475 1469 1474 1479 1491 1502 1500 1511 1506 1492 1493 1488 1487 1488 1490 1492 1494 1498 1501 1504 1508 1512 1515 1518 1520 1523 1524 1526 1528 1529 1530 1532 1533 1535 1536 1536 1537 1538
1467 1462 1463 1464 1461 1463 1465 1471 1478 1487 1499 1515 1502 1507 1509 1493 1484 1479 1480 1482 1485 1488 1492 1495 1498 1503 1506 1510 1513 1515 1518 1520 1522 1524 1526 1527 1529 1530 1531 1532 1533 1534 1535 1536
1472 1464 1458 1458 1465 1464 1468 1489 1511 1517 1524 1518 1497 1501 1499 1476 1470 1471 1473 1476 1479 1484 1488 1492 1496 1499 1503 1506 1509 1512 1515 1518 1520 1522 1524 1525 1527 1528 1529 1530 1531 1532 1533 1534
1485 1482 1461 1456 1461 1469 1470 1484 1511 1524 1526 1515 1498 1500 1485 1468 1465 1467 1469 1472 1476 1480 1484 1488 1491 1494 1499 1502 1506 1509 1512 1515 1517 1520 1521 1523 1525 1526 1527 1528 1529 1530 1531 1532
1483 1480 1457 1452 1451 1457 1468 1477 1479 1499 1506 1514 1507 1492 1478 1466 1465 1466 1468 1471 1474 1476 1480 1484 1487 1491 1495 1499 1502 1505 1509 1512 1514 1517 1519 1521 1522 1524 1525 1526 1527 1528 1529 1530
1466 1476 1461 1452 1449 1451 1457 1465 1484 1499 1514 1520 1509 1498 1492 1477 1472 1468 1468 1470 1471 1473 1477 1482 1485 1488 1493 1496 1500 1503 1507 1509 1512 1514 1516 1518 1520 1521 1523 1524 1525 1526 1527 1528
1459 1473 1468 1460 1460 1462 1461 1467 1479 1493 1498 1513 1518 1504 1471 1469 1468 1468 1468 1469 1470 1473 1475 1478 1482 1486 1490 1494 1497 1500 1504 1507 1509 1511 1513 1515 1517 1519 1520 1521 1523 1523 1524 1525
1457 1470 1478 1466 1453 1449 1454 1461 1473 1491 1497 1500 1506 1498 1463 1463 1463 1465 1467 1468 1469 1472 1474 1476 1480 1484 1487 1491 1494 1497 1500 1503 1506 1508 1510 1512 1514 1516 1517 1518 1519 1520 1521 1522
1455 1470 1485 1480 1470 1458 1457 1458 1463 1474 1487 1497 1503 1493 1464 1464 1465 1466 1466 1467 1469 1472 1474 1475 1478 1482 1485 1488 1491 1494 1497 1500 1503 1505 1507 1509 1510 1512 1513 1514 1516 1516 1517 1518
1450 1467 1478 1485 1477 1465 1463 1459 1459 1471 1486 1490 1487 1482 1472 1468 1468 1468 1467 1468 1470 1472 1473 1475 1477 1480 1483 1486 1489 1491 1494 1497 1500 1502 1503 1505 1506 1508 1509 1511 1512 1513 1514 1515
1451 1465 1463 1462 1458 1456 1457 1457 1456 1464 1468 1475 1474 1474 1470 1467 1466 1468 1468 1469 1470 1471 1473 1475 1476 1478 1481 1484 1487 1489 1491 1494 1496 1498 1500 1501 1503 1504 1506 1507 1508 1509 1510 1511
1454 1461 1461 1461 1454 1454 1456 1454 1453 1455 1458 1462 1465 1469 1462 1463 1465 1467 1467 1468 1470 1471 1473 1476 1477 1478 1479 1481 1483 1486 1488 1491 1493 1494 1496 1498 1499 1500 1502 1503 1504 1505 1506 1506
1458 1462 1469 1471 1458 1458 1467 1457 1454 1455 1453 1456 1464 1464 1461 1463 1464 1465 1466 1468 1470 1471 1473 1474 1476 1477 1478 1480 1482 1484 1486 1488 1490 1492 1493 1494 1496 1497 1498 1499 1500 1501 1501 1502
1456 1462 1471 1473 1468 1480 1464 1449 1447 1450 1452 1450 1452 1455 1457 1459 1462 1465 1467 1468 1470 1472 1474 1475 1476 1477 1478 1480 1481 1482 1483 1484 1487 1489 1490 1491 1493 1494 1494 1496 1497 1497 1498 1498
1446 1456 1469 1476 1478 1472 1458 1450 1449 1453 1457 1451 1452 1454 1457 1460 1464 1469 1469 1469 1470 1471 1473 1474 1475 1476 1478 1479 1479 1480 1482 1483 1485 1486 1487 1488 1489 1491 1490 1491 1493 1494 1494 1494
1444 1450 1464 1471 1475 1477 1461 1447 1445 1450 1462 1453 1451 1453 1457 1459 1469 1471 1469 1469 1469 1471 1472 1474 1475 1476 1477 1478 1478 1479 1481 1481 1482 1483 1484 1485 1487 1487 1488 1488 1490 1490 1490 1490
1454 1458 1464 1469 1472 1464 1451 1445 1445 1462 1463 1453 1451 1452 1455 1458 1462 1465 1466 1467 1469 1471 1472 1473 1474 1476 1477 1478 1478 1478 1479 1480 1481 1482 1483 1483 1483 1484 1484 1485 1485 1485 1485 1485
1458 1463 1465 1468 1472 1468 1447 1446 1450 1452 1448 1450 1451 1452 1455 1458 1460 1463 1465 1467 1469 1470 1472 1473 1474 1475 1477 1477 1477 1478 1478 1479 1480 1480 1479 1479 1480 1480 1480 1480 1481 1481 1482 1481
1454 1455 1459 1461 1463 1452 1447 1446 1447 1447 1448 1449 1451 1453 1455 1458 1460 1462 1465 1467 1469 1470 1471 1473 1474 1475 1475 1476 1477 1477 1477 1478 1478 1478 1477 1478 1478 1478 1477 1477 1477 1477 1478 1477
1452 1449 1453 1456 1453 1450 1448 1447 1448 1448 1449 1450 1451 1453 1456 1458 1460 1463 1465 1467 1469 1470 1471 1472 1473 1474 1474 1475 1475 1475 1475 1476 1476 1476 1475 1476 1476 1475 1475 1474 1475 1475 1474 1472
1451 1451 1453 1456 1453 1450 1450 1448 1448 1450 1451 1451 1452 1454 1455 1457 1460 1462 1465 1467 1467 1468 1470 1471 1472 1472 1472 1473 1473 1474 1474 1474 1474 1474 1474 1474 1473 1472 1471 1472 1472 1472 1472 1471
1448 1449 1452 1453 1449 1450 1450 1449 1450 1450 1451 1452 1453 1455 1457 1458 1460 1462 1464 1465 1466 1467 1469 1469 1470 1470 1471 1471 1472 1472 1472 1471 1471 1471 1470 1471 1470 1469 1469 1469 1469 1469 1469 1469